sat.trackr.live / text

‹ back to catalog

STARLINK-6066

NORAD 56105 · 2023-046N

PAYLOAD ACTIVE UNKNOWN

§ Identity

Operator
Country
US
Launch date
2023-03-29
Launch site
AFETR
Launch vehicle
Mass (kg)
RCS (m²)

Purposes: comms

External: N2YO · Heavens-Above · Gunter

§ Orbital elements

Epoch: 2026-05-25T03:46:03.884160Z

Period
94.27 min
Inclination
42.9953°
Eccentricity
0.0002316
Mean motion
15.27579395 rev/d
Perigee alt
481.5 km
Apogee alt
484.6 km
Semi-major
6,861.2 km
B*
3.6344e-4
RAAN
89.9275°
Arg perigee
258.6477°
Mean anomaly
101.4115°
Rev number
17,372

§ Raw data

STARLINK-60661 56105U 23046N   26145.15698940  .00009752  00000+0  36344-3 0  99972 56105  42.9953  89.9275 0002316 258.6477 101.4115 15.27579395173728

JSON: /api/v1/satellites/56105 · /tle

For live sub-satellite position, see the globe view (requires WebGL).

§ Visibility from observer

Set your observer location to see the next 7 days of passes ≥ 10°. The values pass through the URL so the page stays shareable.

No JS? Fill the form by hand. The geolocation button needs JavaScript.